TimeEDT,TemperatureF,Dew PointF,Humidity,Sea Level PressureIn,VisibilityMPH,Wind Direction,Wind SpeedMPH,Gust SpeedMPH,PrecipitationIn,Events,Conditions,WindDirDegrees,DateUTC
12:53 AM,52.0,48.0,86,30.04,10.0,Calm,Calm,-,0.01,Rain,Light Rain,0,2013-03-31 04:53:00
1:53 AM,51.1,48.9,92,30.00,6.0,NNE,3.5,-,0.09,Rain,Rain,30,2013-03-31 05:53:00
2:53 AM,50.0,48.9,96,29.98,4.0,NNW,3.5,-,0.16,Rain,Heavy Rain,340,2013-03-31 06:53:00
3:14 AM,50.0,48.2,94,29.98,5.0,Calm,Calm,-,0.06,Rain,Rain,0,2013-03-31 07:14:00
3:30 AM,50.0,48.2,94,29.96,3.0,East,5.8,-,0.08,Rain,Light Rain,90,2013-03-31 07:30:00
3:53 AM,50.0,48.9,96,29.94,5.0,NNW,4.6,-,0.09,Rain,Light Rain,330,2013-03-31 07:53:00
4:03 AM,50.0,48.2,94,29.94,4.0,East,3.5,-,0.01,Rain,Light Rain,90,2013-03-31 08:03:00
4:11 AM,50.0,48.2,94,29.94,4.0,Calm,Calm,-,0.02,Rain,Light Rain,0,2013-03-31 08:11:00
4:19 AM,50.0,48.2,94,29.94,5.0,ESE,5.8,-,0.02,Rain,Light Rain,120,2013-03-31 08:19:00
4:32 AM,50.0,48.2,94,29.96,5.0,WNW,8.1,-,0.02,Rain,Rain,300,2013-03-31 08:32:00
4:45 AM,50.0,50.0,100,29.95,3.0,Calm,Calm,-,0.05,Rain,Rain,0,2013-03-31 08:45:00
4:53 AM,50.0,48.9,96,29.93,3.0,Calm,Calm,-,0.07,Rain,Light Rain,0,2013-03-31 08:53:00
4:56 AM,50.0,48.2,94,29.94,2.5,Calm,Calm,-,0.00,Rain,Light Rain,0,2013-03-31 08:56:00
5:07 AM,50.0,50.0,100,29.94,3.0,Calm,Calm,-,0.03,Rain,Rain,0,2013-03-31 09:07:00
5:14 AM,50.0,50.0,100,29.94,3.0,SE,3.5,-,0.03,Rain,Light Rain,130,2013-03-31 09:14:00
5:53 AM,50.0,48.9,96,29.93,4.0,SSE,3.5,-,0.08,Rain,Light Rain,150,2013-03-31 09:53:00
6:49 AM,50.0,50.0,100,29.92,3.0,Calm,Calm,-,0.01,,Overcast,0,2013-03-31 10:49:00
6:53 AM,50.0,50.0,100,29.91,2.0,Calm,Calm,-,0.01,,Overcast,0,2013-03-31 10:53:00
7:00 AM,50.0,50.0,100,29.92,2.5,SSE,3.5,-,N/A,,Overcast,150,2013-03-31 11:00:00
7:10 AM,50.0,50.0,100,29.92,3.0,Calm,Calm,-,N/A,,Overcast,0,2013-03-31 11:10:00
7:34 AM,50.0,50.0,100,29.92,2.5,Calm,Calm,-,N/A,,Overcast,0,2013-03-31 11:34:00
7:53 AM,51.1,50.0,96,29.91,4.0,Calm,Calm,-,N/A,,Overcast,0,2013-03-31 11:53:00
8:53 AM,54.0,53.1,97,29.90,4.0,SSW,10.4,-,N/A,,Overcast,200,2013-03-31 12:53:00
9:53 AM,57.0,55.0,93,29.91,7.0,SW,6.9,-,N/A,,Overcast,230,2013-03-31 13:53:00
10:17 AM,57.2,55.4,94,29.92,10.0,WSW,9.2,-,N/A,,Overcast,240,2013-03-31 14:17:00
10:53 AM,59.0,55.9,90,29.91,10.0,WSW,16.1,20.7,N/A,,Overcast,240,2013-03-31 14:53:00
11:09 AM,60.8,55.4,82,29.92,10.0,WSW,12.7,-,N/A,,Overcast,240,2013-03-31 15:09:00
11:50 AM,66.2,55.4,68,29.91,10.0,West,8.1,-,N/A,,Scattered Clouds,260,2013-03-31 15:50:00
11:53 AM,66.0,55.0,68,29.89,10.0,WSW,15.0,-,N/A,,Scattered Clouds,240,2013-03-31 15:53:00
12:53 PM,69.1,53.1,57,29.87,10.0,WSW,18.4,23.0,N/A,,Mostly Cloudy,240,2013-03-31 16:53:00
1:53 PM,70.0,52.0,53,29.86,10.0,WSW,19.6,24.2,N/A,,Scattered Clouds,240,2013-03-31 17:53:00
2:53 PM,68.0,52.0,56,29.85,10.0,SSW,17.3,27.6,N/A,,Partly Cloudy,210,2013-03-31 18:53:00
3:53 PM,70.0,51.1,51,29.84,10.0,SSW,15.0,27.6,N/A,,Partly Cloudy,210,2013-03-31 19:53:00
4:53 PM,64.9,50.0,58,29.85,10.0,SW,9.2,20.7,N/A,,Overcast,230,2013-03-31 20:53:00
5:53 PM,64.9,54.0,68,29.83,10.0,SW,11.5,19.6,0.00,,Mostly Cloudy,220,2013-03-31 21:53:00
6:53 PM,64.0,54.0,70,29.85,10.0,SW,13.8,20.7,N/A,,Overcast,230,2013-03-31 22:53:00
7:53 PM,61.0,54.0,78,29.84,10.0,WSW,10.4,-,N/A,,Clear,240,2013-03-31 23:53:00
8:53 PM,59.0,53.1,81,29.84,10.0,SW,4.6,-,N/A,,Clear,230,2013-04-01 00:53:00
9:53 PM,59.0,54.0,83,29.85,10.0,SSW,8.1,-,N/A,,Overcast,200,2013-04-01 01:53:00
10:53 PM,59.0,55.0,87,29.84,10.0,SW,4.6,-,N/A,,Overcast,220,2013-04-01 02:53:00
11:53 PM,57.9,55.0,90,29.83,10.0,SW,8.1,-,0.00,,Overcast,220,2013-04-01 03:53:00